Location: Unspecified
(0.0000°N, 0.0000°E)
Time: 20:27:32
(UTC+00:00)

Tiros 1 despin weight - All Passes

Search period start: 10 December 2016 00:00
Search period end: 20 December 2016 00:00
Orbit: 595 x 644 km, 48.2° (Epoch: 10 December)

Date Brightness Start Highest point End Pass type
(mag) Time Alt. Az. Time Alt. Az. Time Alt. Az.
10 Dec - 04:06:26 10° NNW 04:10:38 33° NE 04:14:50 10° ESE visible
10 Dec - 05:48:43 10° W 05:52:05 19° SW 05:55:27 10° S daylight
10 Dec - 16:14:53 10° SSW 16:19:11 52° SE 16:23:28 10° NE daylight
10 Dec - 17:59:37 10° WNW 18:00:38 11° NW 18:01:39 10° NW daylight
11 Dec - 04:23:00 10° NW 04:27:41 89° WSW 04:32:24 10° SE visible
11 Dec - 14:53:36 10° SSE 14:54:47 11° SE 14:55:57 10° ESE daylight
11 Dec - 16:31:57 10° SW 16:36:14 51° NW 16:40:30 10° NNE daylight
12 Dec - 02:59:54 10° N 03:03:18 20° NE 03:06:43 10° E visible
12 Dec - 04:40:34 10° WNW 04:44:46 32° SW 04:48:58 10° SSE visible
12 Dec - 15:08:03 10° S 15:11:55 29° SE 15:15:46 10° ENE daylight
12 Dec - 16:50:14 10° W 16:53:19 19° NW 16:56:24 10° N daylight
13 Dec - 03:15:50 10° NNW 03:20:24 52° NE 03:24:58 10° SE visible
13 Dec - 04:59:53 10° WSW 05:01:54 13° SW 05:03:55 10° SSW visible
13 Dec - 15:24:33 10° SW 15:28:58 87° SE 15:33:23 10° NE daylight
14 Dec - 01:54:21 10° NNE 01:55:57 12° NE 01:57:34 10° ENE night (unlit)
14 Dec - 03:32:51 10° NW 03:37:27 56° SW 03:42:04 10° SSE visible
14 Dec - 14:01:40 10° S 14:04:38 17° SE 14:07:34 10° E daylight
14 Dec - 15:42:06 10° WSW 15:46:02 31° NW 15:49:57 10° NNE daylight
15 Dec - 02:09:00 10° N 02:13:05 30° NE 02:17:12 10° ESE visible
15 Dec - 03:50:59 10° W 03:54:32 21° SW 03:58:06 10° S visible
15 Dec - 14:17:27 10° SSW 14:21:43 47° SE 14:25:57 10° NE daylight
15 Dec - 16:01:34 10° WNW 16:03:09 12° NW 16:04:43 10° NNW daylight
16 Dec - 02:25:28 10° NW 02:30:08 83° NE 02:34:52 10° SE visible
16 Dec - 14:34:26 10° SW 14:38:46 56° NW 14:43:05 10° NNE daylight
17 Dec - 01:02:34 10° N 01:05:45 18° NE 01:08:57 10° E night (unlit)
17 Dec - 02:42:56 10° WNW 02:47:12 35° SW 02:51:31 10° SSE visible
17 Dec - 13:10:39 10° S 13:14:26 27° SE 13:18:11 10° ENE daylight
17 Dec - 14:52:34 10° W 14:55:50 20° NW 14:59:05 10° N daylight
18 Dec - 01:18:21 10° NNW 01:22:50 47° NE 01:27:21 10° SE night (unlit)
18 Dec - 03:01:58 10° W 03:04:20 14° SW 03:06:43 10° SSW visible
18 Dec - 13:27:04 10° SW 13:31:30 79° SE 13:35:53 10° NE daylight
18 Dec - 23:57:36 10° NE 23:58:24 10° NE 23:59:12 10° ENE night (unlit)
19 Dec - 01:35:17 10° NW 01:39:53 61° SW 01:44:32 10° SSE night (unlit)
19 Dec - 12:04:21 10° S 12:07:07 16° SE 12:09:52 10° E daylight
19 Dec - 13:44:30 10° WSW 13:48:33 34° NW 13:52:33 10° NNE daylight
